Back to catalog

SL-8 DEB

AliveLEO
NORAD 21173·DEBRIS·🇷🇺 Russia

Launched Feb 12, 1991 from Plesetsk Cosmodrome

Loading…

Next Passes (next 24 hours)

TLE

FreshSource: Space-Track

Epoch: Sep 13, 2026, 21:28 UTC

1 21173U 91009AL  26256.89491208  .00000055  00000-0  65170-3 0  9997
2 21173  74.1118 170.1620 0135828  92.5786 336.7892 12.19286120581283

Track SL-8 DEB in real time with AllMySat

Download on the App Store